Ramsgate Beach Real Estate, NSW, 2217 Bayside (NSW)

Thinking about buying in Ramsgate Beach? Now could not be a better time, with a whopping 1580 properties either residential or commercial there's certainly plenty to choose from.

The average property price for this area is $739,000 with prices in this suburb ranging from $508,000 to $994,000.

Distance to the coast is 0 Km.

Ramsgate Beach Real Estate Market Outlook

Prices are above market average and increase steadily under persistent demand. A more sustainable rate of price growth is anticipated in the short to medium term. In this area of average incomes, there is a mix of housing size and quality. While this may present buying opportunities, growth may be constrained. As buyers begin to examine Ramsgate Beach due to other areas being out of the price range and the trend to working from home, "gentrification" may incease price growth. A mix of professions and above average income earners in Ramsgate Beach provides good demand. The lower than average housing turnover of these people also means fewer regular listings leading to periodic large price increases. Medium density in Ramsgate Beach necessitates a mix of lifestyle options for housing, shops, open areas, and facilties. Where this is available, demand is high and growth ensured. Higher than average industry presence in the wider area offering local employment yet with not a large negative impact on local amenity, provides good demand and price growth.

About

For Sale

professionals UNIT 11, 20-22 FLORENCE ST, RAMSGATE BEACH, NSW, 2217 2 1 Offers Invited

More

Local Schools


None within suburb boundary

(While the above schools are located with the suburb of Ramsgate Beach there may also be nearby schools whose catchments cover this suburb)

Local Crime Stats


Average Local Climate by month


(mm)
RAIN
Min (°C)
TEMP
Max (°C)
TEMP
Min (%)
HUMIDITY
Max (%)
HUMIDITY
(m/sec)
WIND
(MJ/sq m)
SOLAR
Jan2.420.328.550.988.36.223.1
Feb4.120.227.552.787.86.020.1
Mar4.918.826.451.487.45.616.5
Apr3.515.623.949.486.95.014.0
May2.112.021.145.583.25.111.4
Jun4.110.018.350.886.15.29.2
Jul2.18.918.641.880.85.210.5
Aug2.09.419.636.878.15.713.2
Sept1.512.322.436.881.25.817.5
Oct2.014.824.141.484.16.021.0
Nov2.617.125.845.785.66.223.3
Dec2.018.927.446.786.46.224.6

source: Australian Government Bureau of Meteorology

Recently Sold

27-04-2022 $1,335,000 1 / 40 CHUTER AVE RAMSGATE BEACH 2217
27-04-2022 $1,335,000 1 / 40 CHUTER AVE RAMSGATE BEACH 2217
07-04-2022 $725,000 11 / 65 ALFRED ST RAMSGATE BEACH 2217
07-04-2022 $725,000 19 / 65 ALFRED ST RAMSGATE BEACH 2217
28-03-2022 $530,000 13 / 110 CHUTER AVE RAMSGATE BEACH 2217
24-03-2022 $440,000 6 / 191 RAMSGATE RD RAMSGATE BEACH 2217
24-03-2022 $440,000 7 / 191 RAMSGATE RD RAMSGATE BEACH 2217
02-03-2022 $1,200,000 28 / 191 RAMSGATE RD RAMSGATE BEACH 2217
21-02-2022 $2,510,000 270 THE GRAND PDE RAMSGATE BEACH 2217
08-02-2022 $750,000 4 / 20 FLORENCE ST RAMSGATE BEACH 2217
01-02-2022 $790,000 4 / 90 CHUTER AVE RAMSGATE BEACH 2217
01-02-2022 $1,750,000 2 / 7 ALFRED ST RAMSGATE BEACH 2217
25-01-2022 $3,550,000 2 FLORENCE ST RAMSGATE BEACH 2217
20-01-2022 $1,135,000 3 / 40 CHUTER AVE RAMSGATE BEACH 2217
20-01-2022 $1,461,000 1 / 24 ALFRED ST RAMSGATE BEACH 2217
23-12-2021 $15,000 19 / 65 ALFRED ST RAMSGATE BEACH 2217
22-12-2021 $1,310,000 1 / 84 ALFRED ST RAMSGATE BEACH 2217
03-12-2021 $1,050,000 3 / 52 ALFRED ST RAMSGATE BEACH 2217
26-11-2021 $910,000 12 / 136 CHUTER AVE RAMSGATE BEACH 2217
25-11-2021 $980,000 1 / 55 ALFRED ST RAMSGATE BEACH 2217
25-11-2021 $980,000 17 / 55 ALFRED ST RAMSGATE BEACH 2217
10-11-2021 $1,150,000 4 / 62 CHUTER AVE RAMSGATE BEACH 2217
01-11-2021 $715,000 3 / 124 CHUTER AVE RAMSGATE BEACH 2217
01-11-2021 $715,000 25 / 124 CHUTER AVE RAMSGATE BEACH 2217
01-11-2021 $715,000 3 / 124 CHUTER AVE RAMSGATE BEACH 2217
01-11-2021 $715,000 25 / 124 CHUTER AVE RAMSGATE BEACH 2217
28-10-2021 $885,000 4 / 142 RAMSGATE RD RAMSGATE BEACH 2217
27-10-2021 $572,500 17 / 110 CHUTER AVE RAMSGATE BEACH 2217
27-10-2021 $572,500 22 / 110 CHUTER AVE RAMSGATE BEACH 2217
27-10-2021 $572,500 17 / 110 CHUTER AVE RAMSGATE BEACH 2217
27-10-2021 $572,500 22 / 110 CHUTER AVE RAMSGATE BEACH 2217
26-10-2021 $745,000 19 / 124 CHUTER AVE RAMSGATE BEACH 2217
25-10-2021 $600,000 5 / 24 FLORENCE ST RAMSGATE BEACH 2217
25-10-2021 $600,000 25 / 24 FLORENCE ST RAMSGATE BEACH 2217
25-10-2021 $600,000 5 / 24 FLORENCE ST RAMSGATE BEACH 2217
25-10-2021 $600,000 25 / 24 FLORENCE ST RAMSGATE BEACH 2217
12-10-2021 $825,000 17 / 191 RAMSGATE RD RAMSGATE BEACH 2217
01-10-2021 $1,100,000 1 / 126 CHUTER AVE RAMSGATE BEACH 2217
30-09-2021 $1,055,000 9 / 132 CHUTER AVE RAMSGATE BEACH 2217
30-09-2021 $1,055,000 16 / 132 CHUTER AVE RAMSGATE BEACH 2217
30-09-2021 $1,055,000 9 / 132 CHUTER AVE RAMSGATE BEACH 2217
30-09-2021 $1,055,000 16 / 132 CHUTER AVE RAMSGATE BEACH 2217
20-09-2021 $2,500,000 4 / 191 RAMSGATE RD RAMSGATE BEACH 2217
15-09-2021 $1,860,000 401 / 154 RAMSGATE RD RAMSGATE BEACH 2217
09-09-2021 $1,205,000 5 / 53 CHUTER AVE RAMSGATE BEACH 2217
12-08-2021 $875,000 11 / 130 CHUTER AVE RAMSGATE BEACH 2217
19-07-2021 $858,000 1 / 83 ALFRED ST RAMSGATE BEACH 2217
07-07-2021 $1,455,000 41 ALFRED ST RAMSGATE BEACH 2217
01-07-2021 $640,000 4 / 116 CHUTER AVE RAMSGATE BEACH 2217
01-07-2021 $640,000 20 / 116 CHUTER AVE RAMSGATE BEACH 2217

Residz covers 12m+ Australian properties and brings together a wealth of data to give you a better understanding of an area. From crime and schools to bush fire, flood risk and more. Begin your search for properties for sale or learn more about where you currently reside. Residz is an exciting next-generation Real Estate platform getting better by the day!